User: anonymous   Login
Location: Whispering Pines Observatory
(39.4020°N, 104.7430°W)
Time: 20:31:13
(UTC-06:00)
Language:

MOS 1 Rocket - Orbit

View from above orbital plane
View from above orbital plane
View from above satellite
View from above satellite

Ground track
Ground track

The orbit data is extracted from the following two-line orbital elements,

1 17528U 87018B   16206.61241904  .00000037  00000-0  17986-4 0  9994
2 17528  97.4077 195.7394 0151161 244.2292 252.9998 14.50671844552384
Epoch (UTC): 24 July 2016 14:41:53
Eccentricity: 0.0151161
inclination: 97.4077°
perigee height: 616 km
apogee height: 831 km
right ascension of ascending node: 195.7394°
argument of perigee: 244.2292°
revolutions per day: 14.50671844
mean anomaly at epoch: 252.9998°
orbit number at epoch: 55238

The dashed part of the orbit path shows where the satellite is in the earth's shadow,  

DLR